Вернуться в каталог

SAUDISAT 2

АктивенЛюбительское радиоSSO
NORAD 28371·PAYLOAD·🇸🇦 Saudi Arabia

Запущен Jun 29, 2004 с Baikonur Cosmodrome

Loading…

Ближайшие Пролёты (ближайшие 24 часа)

TLE

СвежийSource: Space-Track

Эпоха: Sep 14, 2026, 06:07 UTC

1 28371U 04025F   26257.25510335  .00000180  00000-0  51167-4 0  9991
2 28371  98.5565 259.5645 0025231  25.7979 334.4470 14.56725584178715

Отслеживайте SAUDISAT 2 в реальном времени с AllMySat

Download on the App Store